Regional Weather Roundup
Issued by NWS

Home | Current Version | Previous Version | Graphics & Text | Print | Product List | Glossary Off
Versions: 1 2 3 4 5 6 7 8 9 10 11 12 13 14 15 16 17 18 19 20 21 22 23 24 25 26 27 28 29 30 31 32 33 34 35 36 37 38 39 40 41 42 43 44 45 46 47 48 49 50

502
ASUS43 KFSD 190410
RWRSD

WEATHER ROUNDUP FOR SOUTH DAKOTA
NATIONAL WEATHER SERVICE SIOUX FALLS SD
1000 PM CST SAT FEB 18 2017

NOTE: "FAIR" INDICATES FEW OR NO CLOUDS BELOW 12,000 FEET WITH NO
SIGNIFICANT WEATHER AND/OR OBSTRUCTIONS TO VISIBILITY.


SDZ001>005-009-010-012>017-190500-
NORTHWEST AND NORTH CENTRAL SOUTH DAKOTA

CITY           SKY/WX    TMP DP  RH WIND       PRES   REMARKS
BUFFALO          N/A     42  32  67 CALM      29.54R
FAITH            N/A     42  33  70 SE12      29.61R
MOBRIDGE       CLOUDY    39  32  76 SE9       29.62S
$$

SDZ012>016-024>037-041>051-057-063-072>074-190500-
SOUTHWEST AND SOUTH CENTRAL SOUTH DAKOTA

CITY           SKY/WX    TMP DP  RH WIND       PRES   REMARKS
RAPID CTY ARPT MOCLDY    47  32  56 CALM      29.61S
PIERRE         PTCLDY    46  31  55 SE9       29.66R
CUSTER         CLOUDY    45  25  45 VRB5      29.69S
ELLSWORTH AFB  MOCLDY    52  32  46 SW7       29.61R
PHILIP         MOCLDY    52  33  48 CALM      29.63R
PINE RIDGE     PTCLDY    50  32  50 S15G21    29.65F
SPEARFISH      FAIR      48  30  49 SW5       29.63S
WINNER         FAIR      47  31  53 S14       29.70R
$$

SDZ004>011-016>023-039-040-190500-
NORTHEAST SOUTH DAKOTA

CITY           SKY/WX    TMP DP  RH WIND       PRES   REMARKS
ABERDEEN       CLEAR     37  32  82 SE9       29.73S
WATERTOWN      CLEAR     40  35  83 SE7       29.77R
BROOKINGS      CLEAR     39  35  86 SE10      29.78S
SISSETON         N/A     35  35 100 SE5       29.78R
$$

SDZ017-020-022-023-036>040-048>070-190500-
SOUTHEAST SOUTH DAKOTA

CITY           SKY/WX    TMP DP  RH WIND       PRES   REMARKS
SIOUX FALLS    PTCLDY    38  36  92 SE3       29.80R
HURON          CLEAR     40  37  89 SE8       29.74R
CHAMBERLAIN    PTCLDY    42  37  81 SE9       29.72R
MITCHELL       CLOUDY    44  38  79 SE10      29.76R
YANKTON        CLEAR     45  34  65 E7        29.78S
$$

ABBREVIATIONS USED IN REMARKS
   TC - TEMPERATURE IN CELSIUS
  WCI - WIND CHILL INDEX
   HX - HEAT INDEX
  VSB - VISIBILITY





USA.gov is the U.S. government's official web portal to all federal, state and local government web resources and services.